Flag for India Weather past 2 weeks in Yavatmal, Maharashtra, India

Now
81 °F

Haze.


Feels Like: 84 °F
Forecast: 68 / 91 °F
Wind: 3 mph from North

Location: Nagpur Sonegaon

Current Time: Oct 20, 2014 at 10:52:12 AM

Latest Report: Oct 20, 2014 at 8:40 AM


Visibility: 3 mi

Pressure: 30.01 "Hg

Humidity: 70%

Dew point: 70 °F

Location of YavatmalLocation

Historic Weather in Yavatmal — Graph

°F

Yavatmal temperature yesterday

Maximum temperature yesterday: 93 °F (at 2:10 PM)
Minimum temperature yesterday: 70 °F (at 6:40 AM)
Average temperature yesterday: 82 °F

Past Weeks' High & Low Weather Summary

 TemperatureHumidityPressure
High99 °F (Oct 5, 1:10 PM)94% (Oct 16, 1:10 AM)30.07 "Hg (Oct 16, 1:10 AM)
Low68 °F (Oct 18, 6:10 AM)28% (Oct 12, 1:40 PM)29.56 "Hg (Oct 13, 2:40 PM)
Average82 °F67%29.86 "Hg
* Reported Oct 5 8:40 AM — Oct 20 8:40 AM, Yavatmal, Weather by CustomWeather, © 2014

Note: Actual official high and low records may vary slightly from our data, if they occured in-between our weather recording intervals... More about our weather records

Advertising

Yavatmal weather history for previous 24 hours

 ConditionsComfort  
Time TempWeatherWind HumidityBarometerVisibility
8:40 AM
Oct 20
81 °FHaze.3 mph70%30.01 "Hg3 mi
8:10 AM79 °FHaze.3 mph70%30.01 "Hg3 mi
7:40 AM75 °FHaze.2 mph78%30.01 "Hg3 mi
7:10 AM70 °FHaze.2 mph83%29.98 "Hg2 mi
6:40 AM70 °FHaze.2 mph83%29.98 "Hg2 mi
6:10 AM70 °FHaze.2 mph83%29.95 "Hg2 mi
5:10 AM72 °FHaze.No wind78%29.95 "Hg2 mi
3:10 AM73 °FHaze.No wind74%29.92 "Hg3 mi
1:40 AM72 °FHaze.No wind78%29.92 "Hg3 mi
12:40 AM75 °FHaze.No wind69%29.95 "Hg3 mi
11:40 PM
Oct 19
75 °FHaze.No wind78%29.95 "Hg3 mi
11:10 PM75 °FHaze.No wind74%29.95 "Hg3 mi
10:40 PM77 °FHaze.No wind74%29.95 "Hg3 mi
10:10 PM79 °FHaze.No wind74%29.95 "Hg3 mi
9:40 PM81 °FHaze.2 mph74%29.95 "Hg3 mi
8:40 PM81 °FHaze.No wind66%29.95 "Hg3 mi
8:10 PM79 °FPassing clouds.No wind70%29.95 "Hg4 mi
7:40 PM81 °FPassing clouds.No wind66%29.95 "Hg4 mi
7:10 PM81 °FPassing clouds.No wind66%29.92 "Hg4 mi
6:40 PM82 °FPassing clouds.No wind66%29.89 "Hg4 mi
6:10 PM84 °FPassing clouds.No wind62%29.89 "Hg4 mi
5:40 PM88 °FPassing clouds.No wind55%29.89 "Hg4 mi
5:10 PM90 °FPassing clouds.No wind55%29.86 "Hg4 mi
4:40 PM91 °FPassing clouds.No wind49%29.86 "Hg4 mi
4:10 PM91 °FScattered clouds.No wind52%29.86 "Hg4 mi
3:40 PM93 °FScattered clouds.No wind47%29.86 "Hg4 mi
3:10 PM93 °FScattered clouds.No wind49%29.86 "Hg4 mi
2:40 PM93 °FScattered clouds.No wind49%29.86 "Hg4 mi
2:10 PM93 °FScattered clouds.No wind49%29.89 "Hg4 mi
1:40 PM90 °FScattered clouds.2 mph59%29.89 "Hg4 mi
1:10 PM91 °FScattered clouds.3 mph56%29.92 "Hg4 mi
12:10 PM90 °FScattered clouds.2 mph59%29.95 "Hg4 mi
11:40 AM90 °FPassing clouds.2 mph59%29.95 "Hg4 mi
11:10 AM88 °FPassing clouds.2 mph62%29.95 "Hg4 mi
10:10 AM86 °FHaze.2 mph66%30.01 "Hg3 mi
Weather by CustomWeather, © 2014

See weather overviewHow to use our weather pages